Regional Weather Roundup
Issued by NWS

Home | Current Version | Previous Version | Graphics & Text | Print | Product List | Glossary On
Versions: 1 2 3 4 5 6 7 8 9 10 11 12 13 14 15 16 17 18 19 20 21 22 23 24 25 26 27 28 29 30 31 32 33 34 35 36 37 38 39 40 41 42 43 44 45 46 47 48 49 50
278
ASUS45 KBOU 251107
RWRCO

WEATHER ROUNDUP FOR COLORADO
NATIONAL WEATHER SERVICE DENVER/BOULDER CO
500 AM MDT MON SEP 25 2017

NOTE: "FAIR" INDICATES FEW OR NO CLOUDS BELOW 12000 FEET WITH NO
SIGNIFICANT WEATHER AND/OR OBSTRUCTIONS TO VISIBILITY.

COZ001>005-013-030-031-251200-
...NORTHWEST COLORADO...

CITY           SKY/WX    TMP DP  RH WIND       PRES   REMARKS
CRAIG          FAIR      28  25  88 CALM      30.12S
HAYDEN         MOCLDY    31  28  89 E5        30.13R WCI  26
MEEKER         FAIR      26  24  92 E3        30.11S
RABBIT EARS PA FAIR      27  21  80 SW5       30.15S WCI  21
STEAMBOAT SPGS FAIR      28  27  97 CALM      30.11S
WALDEN         FAIR      25  21  86 SE6       30.13S WCI  18
$$

COZ006>008-011-251200-
...WEST CENTRAL VALLEYS...

CITY           SKY/WX    TMP DP  RH WIND       PRES   REMARKS
GRAND JUNCTION FAIR      35  30  82 E3        30.06R
MONTROSE       FAIR      34  26  72 SE8       30.10S WCI  27
EAGLE          FAIR      28  24  85 CALM      30.14R
RIFLE          FAIR      35  32  88 E3        30.09R
DELTA          NOT AVBL
NUCLA          FAIR      32  23  69 E6        30.11S WCI  26
$$

COZ017>023-064>068-251200-
...SOUTHWEST COLORADO...

CITY           SKY/WX    TMP DP  RH WIND       PRES   REMARKS
DURANGO        FAIR      26  21  81 CALM      30.05S
CORTEZ         FAIR      28  25  88 NE7       30.06S WCI  21
PAGOSA SPRINGS MOCLDY    36  27  69 CALM      30.07S
TELLURIDE      FAIR      28  19  67 CALM      30.14S
WOLF CREEK PAS MOCLDY    28  14  54 S7        30.25S WCI  21
$$

COZ009-010-012-014-032>034-037-058>063-251200-
...CENTRAL COLORADO...

CITY           SKY/WX    TMP DP  RH WIND       PRES   REMARKS
ASPEN          FAIR      27  20  75 SW5       30.10S WCI  22
BUENA VISTA    CLOUDY    37  25  62 NW10      30.10S
COPPER MTN     FAIR      32   3  29 MISG      30.19S
BERTHOUD PASS  MOCLDY    21  12  68 S12       30.21F WCI   9
COTTONWOOD PAS CLOUDY    41  21  45 W3        30.14F
GUNNISON       FAIR      23  16  74 N7        30.14S WCI  15
KREMMLING      FAIR      30  25  80 CALM      30.14S
LEADVILLE      FAIR      21  16  81 N3        30.14R
MONARCH PASS   CLOUDY    28  12  50 W9        30.29F WCI  20
SALIDA         CLOUDY    43  30  59 CALM      30.17R
SUNLIGHT       FAIR      25  14  63 CALM      30.20S
WILKERSON PASS CLOUDY    32  21  64 S9        30.23R WCI  24
$$

COZ069>075-251200-
...SAN LUIS VALLEY/SANGRE DE CRISTO MOUNTAINS...

CITY           SKY/WX    TMP DP  RH WIND       PRES   REMARKS
ALAMOSA        FAIR      29  26  89 W7        30.06F WCI  22
DEL NORTE      MOCLDY    34  24  65 W5        30.09R WCI  30
LA VETA PASS   FOG       36  34  93 NE10G16   30.27S VSB 1/4
SAGUACHE       CLOUDY    39  23  52 NW7       30.08F
$$

COZ035-036-038>040-251200-
...NORTHERN COLORADO FRONT RANGE...

CITY           SKY/WX    TMP DP  RH WIND       PRES   REMARKS
DENVER INTL AP CLOUDY    45  42  89 NW13      30.10R
DMNS CITY PARK   N/A     44  44  99 N7        30.11S
AURORA         CLOUDY    44  44 100 N8        30.10S
FRONT RANGE AP CLOUDY    46  45  93 NW10G17   30.10S FOG
ERIE MUNI ARPT CLOUDY    45  42  88 N9        30.16S
BOULDER MUN AP CLOUDY    45  43  93 NW5       30.11S
CENTENNIAL     CLOUDY    44  44 100 NE3       30.10S FOG
BROOMFIELD     CLOUDY    45  43  93 N7        30.12R
FORT COLLINS   CLOUDY    43  41  93 N9        30.13R
LONGMONT       CLOUDY    47  42  84 N6        30.13S
$$

COZ041-046-047-076>085-087-088-251200-
...PIKES PEAK/PALMER DIVIDE AND SOUTHERN FOOTHILLS...

CITY           SKY/WX    TMP DP  RH WIND       PRES   REMARKS
COLO. SPRINGS  MOCLDY    47  44  90 NW6       30.08F
A. F. ACADEMY  CLOUDY    45  43  93 NW9       30.09F
SCHRIEVER AFB  MOCLDY    44  43  93 MISG      30.10R
CHEYENNE MTN   MOCLDY    45  39  80 NW15G22   30.02F
ELLICOTT       CLOUDY   N/A N/A N/A NE8       30.08R
FALCON         FAIR      42  41  95 E7        30.11R
FORT CARSON    FAIR      47  44  86 N13       30.05F
LIMON            N/A    N/A N/A N/A MISG        N/A
MONUMENT HILL  CLOUDY    39  39 100 N8        30.12F FOG
CANON CITY     MOCLDY    50  46  87 SE5       30.04F
WALSENBURG     NOT AVBL
TRINIDAD       CLOUDY    50  50 100 NE5       30.03S FOG
$$

COZ042>045-048>051-090-091-251200-
...NORTHEAST COLORADO...

CITY           SKY/WX    TMP DP  RH WIND       PRES   REMARKS
GREELEY ARPT   LGT RAIN  45  45 100 N7        30.12S FOG
AKRON          LGT RAIN  45  43  93 N14       30.05F FOG
BURLINGTON     RAIN      49  49 100 N15       30.01R FOG
WRAY           CLOUDY   N/A N/A N/A N12       30.04S
YUMA           CLOUDY    45  45 100 N15       30.03F
STERLING       CLOUDY    45  45 100 NE9       30.06F
HOLYOKE        CLOUDY    46  45  93 N14       30.05F
FORT MORGAN    CLOUDY    44  43  95 NE10      30.09R FOG
$$

COZ086-089-092>099-251200-
...SOUTHEAST COLORADO...

CITY           SKY/WX    TMP DP  RH WIND       PRES   REMARKS
PUEBLO         CLOUDY    53  48  83 NE8       30.03F
LA JUNTA       CLOUDY    53  51  93 N9        29.99F
LAMAR          LGT RAIN  54  52  93 NE7       29.95R
SPRINGFIELD      N/A     52  52 100 N6        29.93F
$$




USA.gov is the U.S. government's official web portal to all federal, state and local government web resources and services.